Terug naar catalogus

CZ-6A DEB

ActiefPO
NORAD 54569·DEBRIS·🇨🇳 China

Gelanceerd Nov 11, 2022 vanaf Taiyuan Satellite Launch Center

Loading…

Volgende Passages (komende 24 uur)

TLE

VersSource: Space-Track

Epoch: Sep 14, 2026, 05:42 UTC

1 54569U 22151LV  26257.23750950  .00104328  00000-0  40856-2 0  9996
2 54569  98.6212 357.9863 0026425 274.7414  85.0803 15.25037069205018

Volg CZ-6A DEB in realtime met AllMySat

Download on the App Store